Wind_Speed
48 41 39 39 36 34 31 29 29 29 28 27 27 26 26 22 19 15 13 13 12 12 13 15 16 17 17 18 20 20 20 20 20 21 22 22 21 17 16 15 14 14 13
54 48 43 41 42 38 35 33 32 32 31 30 27 24 25 23 19 16 14 13 14 14 15 17 18 20 18 18 19 21 22 21 20 21 22 22 20 18 16 16 16 14 13
58 54 48 43 46 43 40 37 35 33 33 32 30 28 25 24 21 18 16 17 16 17 19 19 21 21 21 21 21 22 22 22 21 20 21 22 21 19 18 18 18 16 13
61 60 54 50 48 48 44 41 38 36 33 34 32 30 28 26 23 20 19 18 18 19 20 22 23 22 23 23 23 23 23 22 22 20 21 20 21 20 19 18 18 16 16
69 62 60 56 52 51 49 47 42 40 37 35 35 33 31 28 26 23 21 19 19 21 24 23 22 24 24 23 24 24 24 22 22 22 21 21 21 20 19 18 16 16 19
74 66 65 60 57 55 54 52 47 43 41 36 34 33 33 32 28 26 24 23 22 24 26 25 23 24 23 23 24 25 24 22 23 23 22 21 21 21 21 21 21 22 23
76 74 66 66 61 58 54 53 51 47 44 40 36 33 33 33 31 30 27 27 27 26 26 28 28 25 23 24 25 24 25 23 22 22 22 22 23 24 24 23 24 26 27
73 79 77 71 65 61 58 54 53 51 48 45 41 37 35 36 32 31 31 30 28 27 27 28 28 27 26 25 26 26 25 25 24 23 24 25 26 27 27 27 28 29 30
65 73 72 71 68 65 63 60 56 54 52 50 45 41 38 40 36 33 31 30 29 29 28 29 30 29 28 28 30 29 29 27 27 25 25 26 27 29 30 31 32 33 32
52 67 70 66 71 71 68 65 64 57 57 53 50 45 44 44 41 38 36 34 32 31 33 32 34 34 34 31 31 33 31 31 29 28 26 28 30 32 32 32 34 33 35
53 56 67 66 60 69 73 70 65 62 58 57 55 51 47 48 46 44 43 40 37 34 35 36 38 37 36 34 32 34 34 32 31 31 30 32 33 33 34 35 35 36 38
48 58 57 58 58 62 70 72 67 64 63 61 58 56 53 51 51 51 49 46 44 40 40 39 39 40 41 40 38 38 39 36 35 35 36 38 38 38 36 36 39 40 42
59 53 48 52 58 63 65 68 72 70 68 64 61 57 58 58 55 54 54 52 50 48 47 44 42 40 44 45 41 43 43 42 40 40 42 43 41 43 42 42 44 43 43
41 49 53 73 77 74 73 59 64 68 70 67 68 67 63 65 64 59 60 56 54 51 50 51 47 43 47 46 45 45 46 46 45 45 41 41 43 43 43 44 43 45 46
55 52 61 62 70 69 59 59 62 65 68 69 71 68 69 66 65 62 60 58 56 56 56 55 54 51 51 52 52 51 49 48 45 45 43 42 41 42 40 40 43 45 45
52 54 67 75 76 48 60 64 66 57 62 67 64 64 67 67 64 62 64 64 60 58 58 54 54 54 54 54 52 51 52 52 50 49 46 41 41 42 40 42 45 46 48
54 59 69 68 64 76 58 56 61 56 55 60 60 61 63 64 65 66 67 65 62 63 64 60 59 58 53 53 53 53 54 56 55 53 49 47 41 39 43 49 48 48 53
54 66 75 81 80 71 60 71 68 67 62 57 57 58 61 64 65 63 60 58 61 60 58 61 58 56 57 57 57 56 53 52 50 45 45 45 49 52 52 49 54 52 57
58 70 77 81 80 54 59 64 71 69 64 61 56 57 59 59 61 64 65 56 57 57 60 57 54 57 57 61 59 54 52 51 49 47 49 52 58 58 58 61 61 71 67
62 73 78 69 71 57 65 83 79 68 65 57 61 64 61 59 57 59 58 56 56 60 56 56 61 63 61 60 53 53 54 56 53 55 57 59 64 68 70 71 71 74 79
67 82 88 84 80 77 70 79 75 64 62 62 54 54 55 57 57 57 58 65 68 60 64 62 63 59 59 55 54 58 60 57 56 60 66 70 73 74 73 76 80 78 79
72 87 90 92 85 75 73 69 66 68 59 59 55 49 54 55 54 57 61 62 67 66 64 63 63 61 56 54 57 60 61 63 63 69 70 73 76 77 80 83 82 82 87
74 77 86 95 93 85 80 75 70 68 63 63 56 55 58 55 54 59 59 60 55 59 64 65 64 57 56 59 61 66 69 71 69 73 76 78 77 81 79 83 85 89 92
78 78 84 82 76 86 84 67 75 81 68 58 63 63 57 60 62 60 61 61 64 67 65 65 61 63 64 67 67 74 75 79 76 76 78 81 86 85 82 89 92 93 86
77 79 88 86 83 84 83 76 75 77 72 63 70 68 63 65 67 70 66 64 67 73 75 74 70 67 69 73 73 75 81 80 83 85 88 84 84 87 91 93 91 88 86
86 90 88 86 80 87 85 78 74 78 78 80 82 79 78 72 68 64 67 71 77 78 72 70 73 74 73 77 80 85 84 87 93 87 85 89 91 89 92 94 92 93 93
Wind_Direction
239 235 236 239 240 241 242 241 241 249 253 256 256 257 263 267 269 267 271 273 281 289 296 299 303 308 305 307 309 308 310 307 306 309 316 322 321 316 313 312 314 317 316
242 234 232 234 240 242 240 241 242 244 249 255 260 261 263 259 261 261 267 268 277 285 289 294 300 303 308 306 310 312 309 305 303 307 315 318 315 315 305 302 302 306 308
239 235 232 232 237 239 242 244 244 247 250 252 256 260 264 259 257 260 269 271 275 279 288 295 301 303 306 301 302 306 309 303 297 300 309 315 317 312 307 304 307 307 303
235 238 235 233 234 236 240 244 246 245 249 251 251 256 261 261 260 264 268 273 272 277 283 293 299 298 303 300 297 303 306 303 296 295 305 311 314 313 309 308 309 306 305
233 234 235 234 232 233 236 241 245 245 247 250 252 253 258 262 263 265 268 269 272 280 286 290 295 298 300 297 300 300 304 302 295 293 297 304 309 314 312 309 306 306 309
235 236 234 235 232 233 234 235 239 245 245 249 252 255 258 260 262 265 264 265 271 279 284 286 291 293 296 298 299 300 300 299 298 292 291 298 303 306 308 308 308 302 301
234 237 236 235 236 234 235 238 237 242 246 248 252 255 258 259 261 262 263 266 268 276 283 284 285 286 288 294 299 300 296 297 298 293 288 291 295 301 305 307 307 305 304
232 237 239 238 237 234 237 238 238 239 245 247 249 254 258 260 259 261 263 265 270 275 279 282 280 280 284 285 294 296 292 292 290 290 290 292 294 297 299 302 304 305 312
237 237 238 237 234 235 236 241 240 242 244 248 249 251 257 261 261 261 263 267 270 272 275 277 279 282 282 281 283 291 289 288 287 289 291 291 293 296 298 301 302 304 309
233 234 238 237 235 237 237 238 238 241 242 245 250 251 255 258 260 263 262 264 266 270 272 276 280 280 280 282 283 286 285 286 286 287 287 290 293 294 295 299 302 305 304
234 236 238 238 235 239 239 236 239 239 240 245 248 249 251 258 261 263 264 263 264 269 272 274 278 281 280 279 282 284 286 284 281 285 287 290 289 292 295 298 298 297 299
237 236 237 240 237 238 239 237 239 242 241 243 246 249 251 257 262 263 263 267 265 267 268 274 275 281 283 281 279 281 281 284 280 283 286 289 289 290 295 294 292 294 296
251 237 230 205 221 234 238 241 241 242 242 245 242 244 249 256 257 260 264 265 266 268 272 277 278 278 283 282 280 280 282 286 281 284 287 288 287 288 291 292 290 293 295
224 236 218 215 224 238 242 236 241 240 241 245 248 249 252 257 256 261 264 264 265 267 272 276 280 285 282 283 282 281 283 284 281 286 283 288 288 290 291 291 292 292 297
243 230 212 207 212 225 234 237 237 238 243 247 248 251 255 256 258 262 259 261 266 268 272 273 278 281 279 284 283 284 284 284 282 286 283 287 287 289 292 296 296 296 302
225 220 215 210 221 214 234 236 239 240 239 244 247 249 253 256 259 261 260 259 264 271 270 275 275 277 276 282 284 283 282 282 279 284 282 283 288 289 294 295 295 297 295
232 216 211 205 209 209 225 228 237 238 236 240 241 248 255 259 260 262 263 266 269 274 270 273 271 275 273 278 281 283 282 281 280 278 276 281 288 292 291 293 297 298 300
226 214 212 200 207 215 220 225 238 234 239 246 247 249 250 253 255 261 264 266 268 268 265 265 268 270 272 277 279 280 280 277 277 270 272 280 292 291 295 288 295 294 297
220 214 211 206 207 206 204 214 229 236 242 244 248 252 252 251 252 256 261 260 262 262 263 267 265 268 271 278 277 275 272 269 266 264 271 284 291 290 288 292 296 299 302
218 208 201 205 204 206 206 219 228 242 241 246 249 253 253 252 251 253 252 250 256 261 263 262 264 271 274 275 274 269 265 268 266 267 274 279 287 290 292 295 298 300 301
215 204 197 201 200 201 214 225 233 240 232 243 247 246 249 251 251 253 252 251 252 259 259 262 269 270 271 273 269 269 267 269 272 278 279 285 286 289 290 293 294 297 299
214 201 203 205 207 209 215 217 225 234 240 235 243 245 251 251 253 251 251 253 253 256 258 262 266 266 270 268 266 269 270 271 273 278 280 283 285 289 290 293 292 295 298
210 201 203 211 217 218 218 220 229 230 232 231 243 242 244 245 253 259 252 246 249 255 256 259 260 267 272 266 269 269 270 271 277 280 282 288 290 292 293 293 294 296 300
201 193 202 209 214 214 216 224 227 231 231 230 236 234 230 238 246 249 249 253 251 249 249 249 257 260 264 267 267 268 270 277 282 285 288 291 293 290 291 293 296 300 304
195 199 206 211 219 218 221 229 226 229 228 236 240 243 237 234 244 251 248 251 248 250 253 253 254 261 263 265 268 271 275 279 285 289 288 287 291 290 291 295 298 302 304
194 201 209 214 218 218 221 220 238 236 239 249 246 242 239 243 243 243 246 250 246 249 251 255 260 264 265 269 270 271 278 278 284 283 287 289 289 291 293 294 298 301 302
Height
10872 10880 10882 10887 10890 10893 10897 10899 10900 10903 10906 10908 10910 10912 10913 10915 10916 10917 10917 10918 10917 10917 10917 10917 10916 10916 10915 10914 10914 10913 10912 10911 10909 10908 10906 10904 10903 10902 10901 10899 10897 10896 10895
10864 10872 10875 10879 10883 10887 10890 10894 10896 10897 10901 10904 10906 10908 10909 10910 10912 10914 10914 10915 10915 10914 10914 10914 10913 10913 10913 10912 10911 10910 10909 10908 10907 10905 10904 10902 10901 10899 10898 10896 10895 10894 10893
10856 10864 10868 10872 10876 10880 10884 10887 10891 10893 10896 10899 10902 10904 10905 10907 10908 10910 10911 10911 10911 10911 10911 10911 10911 10910 10910 10909 10908 10907 10906 10905 10904 10903 10901 10900 10898 10896 10895 10894 10893 10892 10891
10848 10852 10859 10865 10868 10872 10877 10881 10885 10888 10891 10894 10897 10900 10901 10903 10904 10906 10907 10907 10908 10907 10908 10908 10908 10907 10907 10906 10905 10904 10903 10902 10901 10900 10899 10897 10896 10894 10893 10892 10891 10890 10889
10836 10843 10849 10855 10860 10863 10869 10873 10878 10881 10884 10888 10891 10895 10896 10899 10901 10903 10903 10903 10904 10904 10904 10905 10905 10904 10904 10903 10902 10900 10899 10898 10897 10896 10896 10895 10894 10893 10891 10890 10888 10887 10886
10826 10835 10839 10846 10852 10856 10860 10865 10870 10874 10878 10882 10886 10889 10892 10894 10896 10898 10899 10900 10900 10901 10900 10900 10900 10900 10900 10899 10898 10897 10896 10895 10894 10893 10893 10892 10891 10890 10889 10887 10886 10884 10882
10821 10821 10830 10838 10845 10850 10854 10858 10863 10868 10872 10876 10880 10883 10886 10888 10891 10893 10895 10896 10897 10897 10896 10896 10896 10896 10895 10895 10894 10893 10892 10891 10890 10889 10889 10888 10888 10887 10885 10884 10882 10880 10878
10812 10812 10821 10829 10837 10844 10848 10852 10856 10861 10865 10870 10874 10878 10881 10882 10886 10888 10890 10891 10893 10893 10892 10891 10891 10891 10891 10891 10890 10889 10888 10887 10886 10886 10885 10884 10884 10882 10881 10879 10878 10876 10875
10806 10806 10808 10819 10828 10834 10840 10845 10850 10854 10858 10863 10868 10873 10875 10876 10880 10882 10884 10886 10887 10888 10888 10887 10887 10887 10887 10886 10885 10885 10884 10882 10882 10881 10881 10880 10879 10878 10877 10875 10873 10872 10870
10795 10798 10800 10808 10820 10824 10829 10834 10840 10845 10850 10855 10861 10866 10868 10869 10872 10875 10878 10879 10881 10882 10882 10883 10883 10882 10881 10881 10881 10880 10879 10878 10877 10876 10876 10874 10873 10872 10871 10870 10869 10867 10865
10782 10785 10788 10796 10803 10810 10817 10823 10830 10837 10841 10846 10852 10858 10861 10862 10865 10868 10870 10872 10874 10875 10876 10876 10876 10877 10876 10875 10875 10875 10874 10873 10873 10872 10870 10869 10868 10866 10866 10865 10863 10861 10858
10767 10773 10778 10785 10793 10797 10804 10812 10820 10827 10831 10837 10843 10849 10853 10855 10859 10860 10863 10866 10867 10868 10868 10869 10869 10870 10870 10869 10870 10869 10868 10868 10867 10866 10864 10863 10862 10861 10859 10858 10856 10854 10851
10753 10763 10771 10775 10780 10787 10795 10803 10810 10815 10821 10828 10834 10840 10844 10847 10850 10852 10855 10857 10859 10860 10861 10863 10863 10862 10862 10862 10863 10862 10862 10862 10860 10859 10857 10856 10854 10853 10852 10851 10848 10847 10845
10740 10750 10761 10768 10771 10778 10787 10794 10799 10805 10811 10819 10823 10830 10836 10837 10840 10845 10847 10849 10851 10853 10854 10855 10856 10855 10854 10853 10854 10854 10854 10854 10853 10851 10850 10848 10847 10845 10844 10842 10841 10840 10839
10723 10734 10746 10754 10759 10770 10779 10784 10788 10795 10802 10806 10812 10823 10823 10826 10831 10836 10838 10841 10843 10845 10846 10847 10847 10846 10845 10845 10845 10846 10846 10845 10845 10843 10842 10840 10839 10838 10836 10834 10834 10833 10832
10705 10718 10728 10742 10747 10761 10769 10773 10777 10785 10791 10796 10803 10810 10813 10817 10822 10825 10829 10833 10834 10835 10837 10837 10836 10835 10836 10835 10836 10836 10836 10835 10835 10834 10832 10833 10830 10830 10828 10827 10826 10825 10824
10691 10708 10720 10730 10739 10751 10764 10763 10762 10776 10783 10787 10791 10797 10802 10807 10811 10815 10820 10822 10824 10825 10825 10825 10825 10825 10826 10826 10826 10826 10825 10824 10824 10825 10823 10822 10822 10820 10819 10818 10818 10816 10816
10681 10695 10707 10719 10727 10746 10757 10761 10759 10767 10774 10778 10783 10787 10790 10794 10799 10803 10806 10810 10812 10811 10812 10812 10813 10815 10815 10815 10816 10815 10815 10813 10814 10816 10813 10812 10811 10810 10809 10808 10807 10806 10805
10669 10682 10695 10708 10722 10735 10742 10749 10745 10756 10763 10769 10773 10777 10779 10783 10787 10791 10796 10799 10800 10799 10800 10801 10803 10804 10804 10804 10804 10804 10803 10802 10804 10804 10803 10802 10801 10799 10797 10796 10795 10794 10792
10663 10672 10687 10701 10714 10725 10733 10739 10741 10746 10753 10758 10763 10766 10770 10773 10777 10780 10782 10786 10787 10787 10789 10790 10792 10793 10792 10792 10792 10791 10791 10791 10794 10793 10792 10792 10789 10788 10787 10785 10783 10781 10778
10651 10663 10679 10689 10702 10716 10726 10731 10736 10738 10741 10749 10753 10754 10758 10760 10764 10767 10770 10773 10776 10777 10777 10779 10780 10780 10779 10780 10780 10779 10778 10780 10782 10781 10779 10778 10778 10777 10775 10772 10770 10768 10766
10643 10657 10667 10679 10692 10703 10714 10720 10726 10730 10733 10740 10743 10746 10748 10750 10751 10754 10758 10760 10762 10765 10765 10766 10768 10769 10767 10768 10769 10768 10767 10767 10768 10765 10766 10764 10763 10762 10761 10758 10756 10754 10752
10634 10648 10659 10671 10683 10694 10705 10709 10716 10722 10727 10730 10732 10735 10737 10738 10740 10743 10745 10747 10751 10754 10754 10754 10755 10755 10755 10756 10755 10754 10749 10750 10754 10753 10751 10751 10748 10746 10744 10741 10740 10738 10736
10628 10642 10653 10662 10674 10681 10691 10698 10705 10712 10715 10716 10719 10721 10724 10725 10729 10729 10733 10736 10737 10737 10739 10739 10741 10740 10741 10741 10740 10737 10735 10733 10736 10737 10734 10732 10732 10729 10728 10725 10722 10721 10716
10624 10636 10644 10654 10665 10673 10684 10690 10696 10699 10703 10704 10706 10711 10711 10710 10716 10718 10722 10723 10721 10721 10722 10724 10726 10726 10725 10726 10727 10725 10722 10724 10720 10718 10717 10717 10717 10713 10710 10706 10704 10700 10696
10617 10626 10636 10647 10655 10664 10671 10678 10681 10686 10693 10691 10693 10695 10695 10698 10701 10703 10706 10705 10703 10702 10709 10713 10716 10714 10711 10712 10714 10715 10712 10709 10707 10705 10701 10698 10696 10693 10688 10684 10682 10679 10677